CZ-4C DEB, 43338

Orbit data source: Space-Track

CZ-4C DEB, 43338 is space debris in LEO originally from a launch on Tue, 10 Apr 2018 UTC launched from the Jiuquan Satellite Launch Center, China (JSC). Debris objects in space refer to the collection of defunct objects orbiting the Earth. Examples of debris include non-operational satellites, rocket bodies, and fragments generated from explosions, collisions, or faulty payload assembly.

Loading next visibility...
Identifier
43338, 2018-034H
Orbit
LEO
Country
Flag of CNCN / PRC
Related business
Manufacturer
Unknown
Mission
Spacecraft
Bus & Motor
Unknown
Mass
Unknown
Launch date (UTC)
2018-04-10 (8 years ago)
Launch vehicle
Unknown
Launch site
Jiuquan Satellite Launch Center, China (JSC)
Object type
Payload
Rocket body
Debris
Shape & HBR
Unknown shape, 0.1 m
Radar Cross Section
Small (<0.1 m²)

Expand to show TLE details & history
Last TLE update: 22 hours ago

TLE from 22 hours ago
0 CZ-4C DEB
1 43338U 18034H   26036.38314993 -.00000032  00000-0  81174-4 0  9995
2 43338  63.3947  78.4494 0263175   7.8696 352.6337 13.44715396384132
Epoch: 2026-02-05T09:11Z
TLE epoch observation values (Epoch: 2026-02-05T09:11:44.153Z)
Latitude
Longitude
164.97926°
Altitude
898.635 km
Speed
7.499 km/s
True Right ascension
05h 13m 47s
True Declination
0° 00' 00"
Sunlit
Object was in daylight at epoch
Visualization orbit readout
Latitude
Unknown
Longitude
Unknown
Altitude
Unknown
Speed
Unknown
Apparent Right ascension
Unknown
Apparent Declination
Unknown
Sunlit
N/A
Visualization observer readout
Local Sidereal Time
09:18:38
Azimuth
Unknown
Elevation
Unknown
Doppler factor
Unknown
Orbital elements
Apogee altitude
1,287.153 km
Perigee altitude
894.036 km
Semi-major axis
7,468.732 km
Eccentricity
0.02632
Inclination
63.3947°
RAAN
78.4494°
Arg. of periapsis
7.8696°
True anomaly
352.23402°
Mean anomaly
352.6337°
Eccentric anomaly
352.43519°
Mean motion
3.36258 °/min
Orbital period
107.06 mins
BSTAR
0.000081174
Loading maneuver chart data...
Computing Atmospheric mass density...
Loading historical data...
Loading historical data...
Loading historical data...
Loading historical data...
Loading historical data...
Loading historical data...
Loading historical data...

Documentation

Showing up to 5 results
|